{"data":{"norad_id":67870,"intl_designator":"2026-034W","name":"STARLINK-36770","alt_names":[],"object_type":"PAYLOAD","status":"ACTIVE","operator":null,"country":"US","launch_date":"2026-02-20","launch_site_code":"AFETR","launch_vehicle":null,"mission":null,"orbit_class":"UNKNOWN","rcs_meters":null,"size_class":null,"mass_kg":null,"dimensions":null,"purposes":["comms"],"wikipedia_slug":null,"has_3d_model":false,"image_url":null,"decayed_at":null,"tle_current":{"epoch":"2026-09-19T21:39:08.139456Z","epoch_age_seconds":114968,"freshness":"FRESH","line1":"1 67870U 26034W   26262.90217754  .00027003  00000+0  80691-3 0  9994","line2":"2 67870  53.1586  20.5078 0001288  90.6787 269.4363 15.34421092 33792","mean_motion":15.34421092,"eccentricity":0.0001288,"inclination_deg":53.1586,"raan_deg":20.5078,"arg_perigee_deg":90.6787,"mean_anomaly_deg":269.4363,"bstar":0.00080691,"rev_number":3379,"period_min":93.846468059369,"perigee_km":461.7594589077,"apogee_km":463.52164320485,"semimajor_km":6840.7775510563,"source":"CELESTRAK","updated_at":"2026-09-20T09:00:43.692693Z"}}}